Weather History for KMML - May, 2013

Change the Weather History Date:

Monday, May 27, 2013

  Actual Average Record
Temperature  
Mean Temperature 56 °F -  
Max Temperature 60 °F 74 °F 93 °F (1966)
Min Temperature 51 °F 51 °F 35 °F (1965)
Degree Days  
Heating Degree Days 10    
Growing Degree Days 6 (Base 50)    
Moisture  
Dew Point 51 °F    
Average Humidity 84    
Maximum Humidity 94    
Minimum Humidity 77    
Precipitation  
Precipitation 0.03 in - - ()
Sea Level Pressure  
Sea Level Pressure 29.85 in    
Wind  
Wind Speed 11 mph (ESE)    
Max Wind Speed 18 mph    
Max Gust Speed 24 mph    
Visibility 5 miles    
Events Thunderstorm    
Averages and records for this station are not official NWS values.
T = Trace of Precipitation, MM = Missing Value Source: NWS Daily Summary

Daily Weather History Graph

Daily Weather History Graph

Search for Another Location

Airport or City:

Trip Planner

Search our weather history database for the weather conditions in past years. The results will help you decide how hot, cold, wet, or windy it might be!

Date:

Astronomy

May. 27, 2013 Rise Set
Actual Time 5:44 AM CDT 8:56 PM CDT
Civil Twilight 5:09 AM CDT 9:32 PM CDT
Nautical Twilight 4:23 AM CDT 10:17 PM CDT
Astronomical Twilight 3:28 AM CDT 11:13 PM CDT
Moon 11:33 PM CDT (5/27) 8:24 AM CDT (5/27)
Length of Visible Light 16h 22m
Length of Day
15h 11m
Waning Gibbous, 91% of the Moon is Illuminated
May 27
Waning Gibbous
May 31
Last Quarter
Jun 8
New
Jun 16
First Quarter
Jun 23
Full

Hourly Weather History & Observations

Time (CDT) Temp. Dew Point Humidity Pressure Visibility Wind Dir Wind Speed Gust Speed Precip Events Conditions
12:15 AM 53.6 °F 48.2 °F 82% 29.96 in 4.0 mi ESE 13.8 mph - N/A   Overcast
12:35 AM 53.6 °F 48.2 °F 82% 29.94 in 4.0 mi East 13.8 mph - N/A   Overcast
12:55 AM 53.6 °F 48.2 °F 82% 29.95 in 3.0 mi ESE 13.8 mph 17.3 mph N/A   Overcast
1:15 AM 53.6 °F 48.2 °F 82% 29.96 in 3.0 mi SE 11.5 mph - N/A   Overcast
1:35 AM 53.6 °F 48.2 °F 82% 29.96 in 3.0 mi SE 11.5 mph - N/A   Overcast
1:55 AM 53.6 °F 48.2 °F 82% 29.95 in 3.0 mi SE 11.5 mph - N/A   Overcast
2:15 AM 53.6 °F 48.2 °F 82% 29.96 in 2.5 mi ESE 12.7 mph - N/A   Overcast
2:35 AM 53.6 °F 48.2 °F 82% 29.93 in 1.2 mi ESE 12.7 mph - N/A   Overcast
3:15 AM 53.6 °F 48.2 °F 82% 29.91 in 1.2 mi SE 13.8 mph - N/A   Overcast
3:35 AM 53.6 °F 48.2 °F 82% 29.92 in 1.2 mi ESE 9.2 mph - N/A   Overcast
3:55 AM 53.6 °F 48.2 °F 82% 29.90 in 1.2 mi ESE 10.4 mph - N/A   Overcast
4:15 AM 53.6 °F 48.2 °F 82% 29.91 in 1.2 mi ESE 8.1 mph - N/A   Overcast
4:35 AM 51.8 °F 50.0 °F 94% 29.92 in 1.0 mi ESE 8.1 mph - N/A   Overcast
4:55 AM 53.6 °F 48.2 °F 82% 29.93 in 1.0 mi SE 10.4 mph - N/A   Overcast
5:15 AM 53.6 °F 48.2 °F 82% 29.93 in 1.5 mi SE 8.1 mph - 0.01 in Thunderstorm Overcast
5:35 AM 53.6 °F 50.0 °F 88% 29.93 in 2.5 mi ENE 5.8 mph - 0.02 in   Overcast
5:55 AM 53.6 °F 50.0 °F 88% 29.91 in 3.0 mi ENE 4.6 mph - 0.02 in   Overcast
6:15 AM 53.6 °F 48.2 °F 82% 29.90 in 2.5 mi East 9.2 mph - 0.01 in   Overcast
6:55 AM 53.6 °F 50.0 °F 88% 29.85 in 1.0 mi ESE 11.5 mph - 0.01 in   Overcast
7:15 AM 53.6 °F 48.2 °F 82% 29.85 in 1.0 mi East 13.8 mph - N/A   Overcast
7:35 AM 53.6 °F 50.0 °F 88% 29.84 in 1.0 mi East 17.3 mph 20.7 mph N/A   Overcast
7:55 AM 53.6 °F 48.2 °F 82% 29.84 in 0.5 mi East 16.1 mph 23.0 mph N/A   Overcast
8:15 AM 53.6 °F 48.2 °F 82% 29.83 in 0.5 mi East 18.4 mph 23.0 mph N/A   Overcast
8:35 AM 53.6 °F 50.0 °F 88% 29.85 in 1.8 mi East 18.4 mph 24.2 mph N/A   Overcast
8:55 AM 53.6 °F 50.0 °F 88% 29.86 in 1.5 mi ESE 18.4 mph 24.2 mph N/A   Overcast
9:15 AM 53.6 °F 51.8 °F 94% 29.88 in 2.0 mi ESE 9.2 mph 19.6 mph N/A   Overcast
9:35 AM 55.4 °F 51.8 °F 88% 29.88 in 3.0 mi East 10.4 mph - N/A   Overcast
9:55 AM 55.4 °F 51.8 °F 88% 29.87 in 3.0 mi East 12.7 mph - N/A   Overcast
10:15 AM 55.4 °F 51.8 °F 88% 29.88 in 4.0 mi East 6.9 mph - N/A   Overcast
10:35 AM 55.4 °F 51.8 °F 88% 29.86 in 5.0 mi East 9.2 mph - N/A   Overcast
10:55 AM 57.2 °F 51.8 °F 82% 29.85 in 5.0 mi East 11.5 mph - N/A   Overcast
11:15 AM 57.2 °F 53.6 °F 88% 29.85 in 7.0 mi East 10.4 mph - N/A   Overcast
11:35 AM 57.2 °F 51.8 °F 82% 29.84 in 7.0 mi East 13.8 mph - N/A   Overcast
11:55 AM 57.2 °F 51.8 °F 82% 29.83 in 7.0 mi East 13.8 mph - N/A   Overcast
12:15 PM 57.2 °F 51.8 °F 82% 29.82 in 7.0 mi East 13.8 mph 18.4 mph N/A   Overcast
12:35 PM 57.2 °F 51.8 °F 82% 29.83 in 7.0 mi East 12.7 mph - N/A   Overcast
12:55 PM 57.2 °F 51.8 °F 82% 29.83 in 9.0 mi East 13.8 mph - N/A   Overcast
1:15 PM 59.0 °F 53.6 °F 82% 29.83 in 9.0 mi East 11.5 mph - N/A   Overcast
1:35 PM 59.0 °F 53.6 °F 82% 29.85 in 10.0 mi ENE 8.1 mph - N/A   Overcast
1:55 PM 59.0 °F 53.6 °F 82% 29.84 in 10.0 mi ESE 8.1 mph - N/A   Overcast
2:15 PM 59.0 °F 53.6 °F 82% 29.84 in 9.0 mi ESE 10.4 mph - N/A   Overcast
2:35 PM 59.0 °F 53.6 °F 82% 29.84 in 7.0 mi ESE 10.4 mph - N/A   Overcast
2:55 PM 59.0 °F 53.6 °F 82% 29.84 in 6.0 mi SE 5.8 mph - N/A   Overcast
3:15 PM 59.0 °F 53.6 °F 82% 29.84 in 6.0 mi NE 4.6 mph - N/A   Overcast
3:35 PM 60.8 °F 53.6 °F 77% 29.82 in 8.0 mi East 10.4 mph - N/A   Overcast
4:15 PM 60.8 °F 53.6 °F 77% 29.82 in 10.0 mi SE 12.7 mph - N/A   Overcast
4:35 PM 60.8 °F 53.6 °F 77% 29.82 in 10.0 mi ESE 11.5 mph - N/A   Overcast
4:55 PM 60.8 °F 53.6 °F 77% 29.81 in 10.0 mi SE 12.7 mph - N/A   Overcast
5:15 PM 59.0 °F 53.6 °F 82% 29.81 in 10.0 mi ESE 10.4 mph - N/A   Overcast
5:35 PM 59.0 °F 53.6 °F 82% 29.81 in 10.0 mi SE 9.2 mph - N/A   Overcast
5:55 PM 59.0 °F 53.6 °F 82% 29.81 in 10.0 mi ESE 8.1 mph - N/A   Overcast
6:15 PM 59.0 °F 53.6 °F 82% 29.80 in 10.0 mi ESE 9.2 mph - N/A   Overcast
6:35 PM 59.0 °F 53.6 °F 82% 29.80 in 10.0 mi East 10.4 mph - N/A   Overcast
6:55 PM 59.0 °F 53.6 °F 82% 29.80 in 9.0 mi East 10.4 mph - N/A   Overcast
7:35 PM 57.2 °F 53.6 °F 88% 29.82 in 8.0 mi ENE 4.6 mph - N/A   Overcast
7:55 PM 57.2 °F 53.6 °F 88% 29.81 in 4.0 mi ESE 8.1 mph - N/A   Overcast
8:15 PM 57.2 °F 53.6 °F 88% 29.81 in 5.0 mi East 6.9 mph - N/A   Overcast
8:35 PM 57.2 °F 53.6 °F 88% 29.79 in 8.0 mi East 6.9 mph - N/A   Overcast
8:55 PM 57.2 °F 53.6 °F 88% 29.79 in 9.0 mi East 4.6 mph - N/A   Overcast
9:15 PM 57.2 °F 53.6 °F 88% 29.78 in 10.0 mi East 5.8 mph - N/A   Overcast
9:55 PM 57.2 °F 53.6 °F 88% 29.80 in 9.0 mi ESE 8.1 mph - N/A   Overcast
10:15 PM 57.2 °F 51.8 °F 82% 29.81 in 7.0 mi ESE 10.4 mph - N/A   Overcast
10:35 PM 57.2 °F 53.6 °F 88% 29.81 in 6.0 mi ESE 6.9 mph - N/A   Overcast
10:55 PM 55.4 °F 53.6 °F 94% 29.80 in 4.0 mi East 6.9 mph - N/A   Overcast
11:15 PM 55.4 °F 53.6 °F 94% 29.78 in 4.0 mi East 9.2 mph - N/A   Overcast
11:35 PM 55.4 °F 53.6 °F 94% 29.78 in 5.0 mi East 6.9 mph - N/A   Overcast
11:55 PM 55.4 °F 53.6 °F 94% 29.77 in 7.0 mi East 9.2 mph - N/A   Overcast